• en Belgique
  • Liste des pays
  • À 7 jours
  • Température de l'eau
  • Carte satellitaire
  • Carte météo
  • Widgets météo
  • user-avatar
    Se connecter

    Météo par heure à Kranevo

    Ce jour, 21 Octobre, Dimanche

    Heure Température Précipitation Vent Pression Humidité
    00:00 +15°C° 0 mm 5 m/s 758 mmHg 77%
    01:00 +14°C° 0 mm 5 m/s 758 mmHg 79%
    02:00 +14°C° 0 mm 5 m/s 758 mmHg 80%
    03:00 +14°C° 0 mm 5 m/s 758 mmHg 81%
    04:00 +13°C° 0 mm 5 m/s 758 mmHg 83%
    05:00 +13°C° 0 mm 5 m/s 758 mmHg 84%
    06:00 +13°C° 0 mm 5 m/s 758 mmHg 83%
    07:00 +14°C° 0 mm 5 m/s 758 mmHg 82%
    08:00 +14°C° 0 mm 5 m/s 758 mmHg 80%
    09:00 +15°C° 0 mm 5 m/s 758 mmHg 73%
    10:00 +17°C° 0 mm 5 m/s 758 mmHg 67%
    11:00 +19°C° 0 mm 5 m/s 758 mmHg 61%
    12:00 +20°C° 0.1 mm 5 m/s 758 mmHg 59%
    13:00 +20°C° 0.1 mm 5 m/s 758 mmHg 58%
    14:00 +20°C° 0.1 mm 5 m/s 758 mmHg 56%
    15:00 +20°C° 0.2 mm 5 m/s 758 mmHg 59%
    16:00 +19°C° 0.2 mm 4 m/s 758 mmHg 63%
    17:00 +18°C° 0.2 mm 4 m/s 758 mmHg 66%
    18:00 +18°C° 0 mm 3 m/s 759 mmHg 70%
    19:00 +17°C° 0 mm 3 m/s 759 mmHg 73%
    20:00 +16°C° 0 mm 3 m/s 759 mmHg 77%
    21:00 +16°C° 0 mm 3 m/s 760 mmHg 77%
    22:00 +14°C° 0 mm 3 m/s 760 mmHg 77%
    23:00 +14°C° 0 mm 3 m/s 760 mmHg 78%

    Demain, 22 Octobre, Lundi

    Heure Température Précipitation Vent Pression Humidité
    00:00 +14°C° 0 mm 3 m/s 760 mmHg 77%
    01:00 +13°C° 0 mm 4 m/s 760 mmHg 75%
    02:00 +13°C° 0 mm 5 m/s 760 mmHg 74%
    03:00 +12°C° 0 mm 5 m/s 760 mmHg 75%
    04:00 +12°C° 0 mm 5 m/s 760 mmHg 76%
    05:00 +12°C° 0 mm 5 m/s 760 mmHg 77%
    06:00 +12°C° 0 mm 5 m/s 760 mmHg 75%
    07:00 +11°C° 0 mm 6 m/s 761 mmHg 74%
    08:00 +11°C° 0 mm 6 m/s 761 mmHg 72%
    09:00 +13°C° 0 mm 6 m/s 761 mmHg 66%
    10:00 +15°C° 0 mm 6 m/s 761 mmHg 61%
    11:00 +16°C° 0 mm 6 m/s 761 mmHg 55%
    12:00 +17°C° 0 mm 5 m/s 761 mmHg 52%
    13:00 +17°C° 0 mm 5 m/s 761 mmHg 50%
    14:00 +19°C° 0 mm 5 m/s 760 mmHg 48%
    15:00 +18°C° 0 mm 4 m/s 760 mmHg 51%
    16:00 +18°C° 0 mm 4 m/s 760 mmHg 53%
    17:00 +17°C° 0 mm 4 m/s 760 mmHg 56%
    18:00 +16°C° 0 mm 3 m/s 760 mmHg 60%
    19:00 +14°C° 0 mm 3 m/s 760 mmHg 64%
    20:00 +14°C° 0 mm 2 m/s 760 mmHg 68%
    21:00 +14°C° 0 mm 2 m/s 760 mmHg 69%
    22:00 +14°C° 0 mm 2 m/s 760 mmHg 69%
    23:00 +13°C° 0 mm 2 m/s 760 mmHg 70%

    Après-demain, 23 Octobre, Mardi

    Heure Température Précipitation Vent Pression Humidité
    00:00 +12°C° 0 mm 3 m/s 760 mmHg 69%
    01:00 +12°C° 0 mm 3 m/s 760 mmHg 69%
    02:00 +11°C° 0 mm 3 m/s 760 mmHg 69%
    03:00 +11°C° 0 mm 3 m/s 760 mmHg 68%
    04:00 +11°C° 0 mm 3 m/s 760 mmHg 68%
    05:00 +10°C° 0 mm 3 m/s 759 mmHg 67%
    06:00 +11°C° 0 mm 3 m/s 760 mmHg 64%
    07:00 +11°C° 0 mm 3 m/s 760 mmHg 61%
    08:00 +12°C° 0 mm 3 m/s 760 mmHg 58%
    09:00 +13°C° 0 mm 3 m/s 760 mmHg 52%
    10:00 +16°C° 0 mm 3 m/s 760 mmHg 46%
    11:00 +18°C° 0 mm 3 m/s 760 mmHg 40%
    12:00 +18°C° 0 mm 2 m/s 759 mmHg 39%
    13:00 +19°C° 0 mm 2 m/s 759 mmHg 38%
    14:00 +19°C° 0 mm 2 m/s 758 mmHg 36%
    15:00 +18°C° 0 mm 2 m/s 758 mmHg 40%
    16:00 +17°C° 0 mm 2 m/s 757 mmHg 44%
    17:00 +16°C° 0 mm 2 m/s 757 mmHg 48%
    18:00 +16°C° 0 mm 2 m/s 757 mmHg 52%
    19:00 +15°C° 0 mm 2 m/s 757 mmHg 55%
    20:00 +14°C° 0 mm 2 m/s 757 mmHg 59%
    21:00 +14°C° 0 mm 2 m/s 757 mmHg 61%
    22:00 +13°C° 0 mm 3 m/s 756 mmHg 62%
    23:00 +12°C° 0 mm 3 m/s 756 mmHg 63%

    24 Octobre, Mercredi

    Heure Température Précipitation Vent Pression Humidité
    00:00 +12°C° 0 mm 3 m/s 755 mmHg 63%
    01:00 +12°C° 0 mm 4 m/s 755 mmHg 63%
    02:00 +12°C° 0 mm 4 m/s 754 mmHg 62%
    03:00 +12°C° 0 mm 5 m/s 753 mmHg 62%
    04:00 +12°C° 0 mm 5 m/s 753 mmHg 62%
    05:00 +11°C° 0 mm 6 m/s 752 mmHg 61%
    06:00 +11°C° 0 mm 7 m/s 751 mmHg 59%
    07:00 +11°C° 0 mm 8 m/s 751 mmHg 56%
    08:00 +11°C° 0 mm 9 m/s 751 mmHg 54%
    09:00 +12°C° 0 mm 9 m/s 750 mmHg 53%
    10:00 +13°C° 0 mm 9 m/s 749 mmHg 52%
    11:00 +15°C° 0 mm 9 m/s 749 mmHg 51%
    12:00 +16°C° 0.1 mm 9 m/s 748 mmHg 47%
    13:00 +17°C° 0.1 mm 10 m/s 747 mmHg 44%
    14:00 +18°C° 0.1 mm 10 m/s 746 mmHg 41%
    15:00 +17°C° 0 mm 10 m/s 746 mmHg 43%
    16:00 +17°C° 0 mm 10 m/s 745 mmHg 45%
    17:00 +16°C° 0 mm 10 m/s 745 mmHg 47%
    18:00 +13°C° 0.1 mm 10 m/s 745 mmHg 49%
    19:00 +11°C° 0.1 mm 11 m/s 746 mmHg 51%
    20:00 +8°C° 0.1 mm 11 m/s 747 mmHg 53%
    21:00 +8°C° 0.1 mm 10 m/s 747 mmHg 53%
    22:00 +7°C° 0.1 mm 8 m/s 748 mmHg 53%
    23:00 +6°C° 0.1 mm 7 m/s 749 mmHg 52%

    25 Octobre, Jeudi

    Heure Température Précipitation Vent Pression Humidité
    00:00 +6°C° 0 mm 7 m/s 749 mmHg 49%
    01:00 +5°C° 0 mm 7 m/s 749 mmHg 46%
    02:00 +5°C° 0 mm 7 m/s 750 mmHg 44%
    03:00 +5°C° 0 mm 7 m/s 750 mmHg 44%
    04:00 +5°C° 0 mm 8 m/s 750 mmHg 44%
    05:00 +5°C° 0 mm 8 m/s 750 mmHg 44%
    06:00 +5°C° 0 mm 8 m/s 751 mmHg 44%
    07:00 +5°C° 0 mm 9 m/s 752 mmHg 43%
    08:00 +6°C° 0 mm 9 m/s 752 mmHg 42%
    09:00 +7°C° 0 mm 9 m/s 753 mmHg 40%
    10:00 +9°C° 0 mm 8 m/s 753 mmHg 37%
    11:00 +10°C° 0 mm 8 m/s 753 mmHg 34%
    12:00 +11°C° 0 mm 7 m/s 753 mmHg 33%
    13:00 +12°C° 0 mm 7 m/s 753 mmHg 31%
    14:00 +12°C° 0 mm 7 m/s 753 mmHg 30%
    15:00 +11°C° 0 mm 6 m/s 754 mmHg 31%
    16:00 +11°C° 0 mm 6 m/s 754 mmHg 32%
    17:00 +10°C° 0 mm 5 m/s 754 mmHg 34%
    18:00 +10°C° 0 mm 5 m/s 754 mmHg 35%
    19:00 +9°C° 0 mm 6 m/s 754 mmHg 36%
    20:00 +8°C° 0 mm 6 m/s 755 mmHg 38%
    21:00 +8°C° 0 mm 6 m/s 755 mmHg 39%
    22:00 +8°C° 0 mm 6 m/s 755 mmHg 41%
    23:00 +8°C° 0 mm 6 m/s 755 mmHg 42%

    26 Octobre, Vendredi

    Heure Température Précipitation Vent Pression Humidité
    00:00 +8°C° 0 mm 7 m/s 755 mmHg 49%
    01:00 +8°C° 0 mm 7 m/s 755 mmHg 55%
    02:00 +8°C° 0 mm 7 m/s 755 mmHg 62%
    03:00 +8°C° 0 mm 7 m/s 755 mmHg 66%
    04:00 +8°C° 0 mm 7 m/s 755 mmHg 70%
    05:00 +8°C° 0 mm 7 m/s 755 mmHg 74%
    06:00 +8°C° 0 mm 7 m/s 756 mmHg 73%
    07:00 +9°C° 0 mm 7 m/s 756 mmHg 72%
    08:00 +10°C° 0 mm 7 m/s 757 mmHg 70%
    09:00 +11°C° 0 mm 7 m/s 757 mmHg 64%
    10:00 +14°C° 0 mm 6 m/s 757 mmHg 58%
    11:00 +16°C° 0 mm 6 m/s 757 mmHg 52%
    12:00 +16°C° 0 mm 5 m/s 757 mmHg 49%
    13:00 +18°C° 0 mm 4 m/s 757 mmHg 47%
    14:00 +19°C° 0 mm 3 m/s 757 mmHg 45%
    15:00 +18°C° 0 mm 3 m/s 757 mmHg 47%
    16:00 +17°C° 0 mm 2 m/s 757 mmHg 49%
    17:00 +17°C° 0 mm 2 m/s 758 mmHg 52%
    18:00 +16°C° 0 mm 2 m/s 758 mmHg 54%
    19:00 +14°C° 0 mm 3 m/s 758 mmHg 57%
    20:00 +14°C° 0 mm 3 m/s 759 mmHg 59%
    21:00 +13°C° 0 mm 3 m/s 759 mmHg 61%
    22:00 +13°C° 0 mm 4 m/s 759 mmHg 62%
    23:00 +13°C° 0 mm 4 m/s 759 mmHg 63%
    Voir plus